Location: Gokavaram
(16.9752°N, 81.0696°E)
Time: 13:06:35
(UTC+00:00)

USA 281 - Pass Details

Date: 15 May 2026
Orbit: 1079 x 1080 km, 106.0° (Epoch: 5 January)

Event Time Altitude Azimuth Distance (km) Brightness Sun altitude
Rises 22:04:53 0° 159° (SSE) 3,865 6.0 -26.5°
Reaches altitude 10° 22:07:23 10° 159° (SSE) 2,911 5.4 -26.0°
Maximum altitude 22:13:57 90° 250° (WSW) 1,082 3.1 -24.7°
Drops below altitude 10° 22:20:31 10° 340° (NNW) 2,915 5.6 -23.3°
Sets 22:23:01 0° 340° (NNW) 3,872 6.3 -22.8°
